World > North America > United States > Ohio > Cleveland   City of Cleveland, OH

Hourly Cleveland, OH Regional Weather

Feedback E-mail the Weather

Quick WX

Cleveland, OH Weather Maps

°F °C°F °C
Cleveland Weather Map
UTC Time: 9/28/2022, 13:29
Your Time:

Cleveland, OH Regional Weather

Expires:202209281400;;596349
ASUS41 KCLE 281312
RWRCLE
OHIO REGIONAL WEATHER ROUNDUP
NATIONAL WEATHER SERVICE WILMINGTON, OH
900 AM EDT WED SEP 28 2022

NOTE: "FAIR" INDICATES FEW OR NO CLOUDS BELOW 12,000 FEET WITH NO
SIGNIFICANT WEATHER AND/OR OBSTRUCTIONS TO VISIBILITY.


OHZ009>014-019>023-028>033-038-089-281400-
   NORTHEAST OHIO
  
CITY           SKY/WX    TMP DP  RH WIND       PRES   REMARKS
CLE-HOPKINS    CLOUDY    55  50  83 NW10      30.22R                  
CLE-LAKEFRONT  CLOUDY    57  50  77 N14       30.22R                  
CUY CO. ARPT   CLOUDY    54  50  87 NW8       30.24R                  
LORAIN-ELYRIA  LGT RAIN  52  47  83 N8        30.26R                  
ASHTABULA      FAIR      54  52  93 W3        30.21R                  
AKRON-CANTON   CLOUDY    51  48  89 W6        30.23R                  
WOOSTER        CLOUDY    50  49  96 NW10      30.25R FOG              
MANSFIELD      CLOUDY    48  46  93 NW10      30.26R                  
YOUNGSTOWN     CLOUDY    51  49  92 W5        30.20R                  
$$
 

SKY/WX - Weather  TMP - Temperature  DP - Dew Point  RH - Humidity
WIND - Wind Direction/Speed PRES - Barometric Pressure VSB - Visibility
WCI - Wind Chill Index E13G22 Wind - East Wind 13 mph/Gusts of 22 mph

Trending Headlines

Trending Entertainment Headlines

Cleveland Radar Loop

Use the map search tool if you want to place a location marker on the radar map...

Cleveland Quick Facts

National Two Day Weather Forecast


E-mail the Cleveland Weather Forecast

Voice your opinion or tell us about page issues...